• In Kazakhstan
  • List of Countries
  • For 7 days
  • Water Temperature
  • Weather Map
  • News
  • Weather Widgets
  • user-avatar
    Login

    Hourly Weather Canberra

    Today, 1 June, Monday

    Time Temperature Precipitation Wind Pressure Humidity
    00:00 +8°C° 0 mm 2 mps 705 mmHg 89%
    01:00 +8°C° 0 mm 2 mps 704 mmHg 90%
    02:00 +8°C° 0 mm 2 mps 704 mmHg 91%
    03:00 +7°C° 0 mm 2 mps 704 mmHg 91%
    04:00 +8°C° 0 mm 3 mps 703 mmHg 89%
    05:00 +7°C° 0.1 mm 3 mps 703 mmHg 91%
    06:00 +7°C° 0.1 mm 3 mps 703 mmHg 93%
    07:00 +7°C° 0.1 mm 3 mps 703 mmHg 95%
    08:00 +7°C° 0 mm 4 mps 702 mmHg 88%
    09:00 +8°C° 0 mm 6 mps 702 mmHg 81%
    10:00 +10°C° 0 mm 7 mps 702 mmHg 70%
    11:00 +9°C° 0.3 mm 7 mps 702 mmHg 76%
    12:00 +8°C° 0.3 mm 6 mps 702 mmHg 83%
    13:00 +5°C° 0.3 mm 6 mps 701 mmHg 89%
    14:00 +5°C° 0.1 mm 6 mps 702 mmHg 88%
    15:00 +6°C° 0.1 mm 5 mps 702 mmHg 86%
    16:00 +6°C° 0 mm 5 mps 703 mmHg 84%
    17:00 +5°C° 0.1 mm 4 mps 703 mmHg 87%
    18:00 +4°C° 0.1 mm 4 mps 703 mmHg 90%
    19:00 +3°C° 0.1 mm 4 mps 704 mmHg 93%
    20:00 +3°C° 0 mm 4 mps 704 mmHg 92%
    21:00 +3°C° 0 mm 4 mps 704 mmHg 92%
    22:00 +3°C° 0 mm 4 mps 705 mmHg 92%
    23:00 +2°C° 0 mm 3 mps 705 mmHg 93%

    Tomorrow, 2 June, Tuesday

    Time Temperature Precipitation Wind Pressure Humidity
    00:00 +2°C° 0 mm 3 mps 705 mmHg 94%
    01:00 +3°C° 0 mm 2 mps 705 mmHg 95%
    02:00 +2°C° 0 mm 2 mps 705 mmHg 95%
    03:00 +2°C° 0 mm 2 mps 705 mmHg 95%
    04:00 +2°C° 0 mm 1 mps 705 mmHg 96%
    05:00 +2°C° 0 mm 1 mps 706 mmHg 95%
    06:00 +2°C° 0 mm 1 mps 706 mmHg 95%
    07:00 +2°C° 0 mm 1 mps 707 mmHg 95%
    08:00 +4°C° 0 mm 1 mps 707 mmHg 88%
    09:00 +6°C° 0 mm 1 mps 708 mmHg 82%
    10:00 +7°C° 0 mm 2 mps 709 mmHg 76%
    11:00 +8°C° 0 mm 2 mps 709 mmHg 71%
    12:00 +10°C° 0 mm 2 mps 709 mmHg 66%
    13:00 +12°C° 0 mm 2 mps 709 mmHg 61%
    14:00 +10°C° 0 mm 3 mps 709 mmHg 64%
    15:00 +10°C° 0 mm 3 mps 709 mmHg 67%
    16:00 +9°C° 0 mm 3 mps 709 mmHg 69%
    17:00 +7°C° 0 mm 3 mps 709 mmHg 78%
    18:00 +5°C° 0 mm 2 mps 709 mmHg 86%
    19:00 +3°C° 0 mm 2 mps 709 mmHg 94%
    20:00 +3°C° 0 mm 2 mps 709 mmHg 95%
    21:00 +3°C° 0 mm 2 mps 710 mmHg 95%
    22:00 +2°C° 0 mm 2 mps 710 mmHg 95%
    23:00 +3°C° 0 mm 1 mps 710 mmHg 95%

    Day after tomorrow, 3 June, Wednesday

    Time Temperature Precipitation Wind Pressure Humidity
    00:00 +3°C° 0 mm 1 mps 710 mmHg 95%
    01:00 +3°C° 0 mm 1 mps 710 mmHg 95%
    02:00 +3°C° 0 mm 1 mps 710 mmHg 95%
    03:00 +3°C° 0 mm 1 mps 710 mmHg 95%
    04:00 +3°C° 0 mm 1 mps 710 mmHg 95%
    05:00 +3°C° 0 mm 1 mps 710 mmHg 96%
    06:00 +3°C° 0 mm 1 mps 711 mmHg 96%
    07:00 +3°C° 0 mm 1 mps 711 mmHg 96%
    08:00 +6°C° 0 mm 1 mps 712 mmHg 87%
    09:00 +8°C° 0 mm 1 mps 713 mmHg 78%
    10:00 +10°C° 0 mm 1 mps 714 mmHg 69%
    11:00 +10°C° 0 mm 2 mps 714 mmHg 62%
    12:00 +11°C° 0 mm 3 mps 714 mmHg 55%
    13:00 +12°C° 0 mm 3 mps 714 mmHg 49%
    14:00 +11°C° 0 mm 3 mps 714 mmHg 50%
    15:00 +10°C° 0 mm 3 mps 715 mmHg 52%
    16:00 +10°C° 0 mm 3 mps 715 mmHg 54%
    17:00 +8°C° 0 mm 3 mps 715 mmHg 61%
    18:00 +5°C° 0 mm 3 mps 716 mmHg 68%
    19:00 +3°C° 0 mm 3 mps 717 mmHg 75%
    20:00 +2°C° 0 mm 3 mps 717 mmHg 79%
    21:00 +2°C° 0 mm 2 mps 717 mmHg 82%
    22:00 +1°C° 0 mm 2 mps 718 mmHg 86%
    23:00 +1°C° 0 mm 2 mps 718 mmHg 88%

    4 June, Thursday

    Time Temperature Precipitation Wind Pressure Humidity
    00:00 +1°C° 0 mm 2 mps 718 mmHg 89%
    01:00 -1°C° 0 mm 2 mps 718 mmHg 91%
    02:00 +1°C° 0 mm 1 mps 718 mmHg 91%
    03:00 +1°C° 0 mm 1 mps 718 mmHg 91%
    04:00 +1°C° 0 mm 1 mps 718 mmHg 91%
    05:00 +1°C° 0 mm 1 mps 718 mmHg 90%
    06:00 +1°C° 0 mm 1 mps 719 mmHg 89%
    07:00 0°C° 0 mm 1 mps 719 mmHg 88%
    08:00 +3°C° 0 mm 1 mps 720 mmHg 76%
    09:00 +5°C° 0 mm 0 mps 720 mmHg 63%
    10:00 +8°C° 0 mm 0 mps 721 mmHg 51%
    11:00 +9°C° 0 mm 0 mps 720 mmHg 47%
    12:00 +12°C° 0 mm 1 mps 719 mmHg 42%
    13:00 +13°C° 0 mm 1 mps 719 mmHg 38%
    14:00 +12°C° 0 mm 1 mps 719 mmHg 43%
    15:00 +11°C° 0 mm 1 mps 718 mmHg 48%
    16:00 +11°C° 0 mm 1 mps 718 mmHg 54%
    17:00 +8°C° 0 mm 1 mps 718 mmHg 62%
    18:00 +6°C° 0 mm 1 mps 718 mmHg 70%
    19:00 +3°C° 0 mm 0 mps 718 mmHg 79%
    20:00 +3°C° 0 mm 0 mps 719 mmHg 80%
    21:00 +3°C° 0 mm 0 mps 719 mmHg 81%
    22:00 +2°C° 0 mm 0 mps 719 mmHg 83%
    23:00 +2°C° 0 mm 0 mps 719 mmHg 83%

    5 June, Friday

    Time Temperature Precipitation Wind Pressure Humidity
    00:00 +2°C° 0 mm 0 mps 718 mmHg 84%
    01:00 +1°C° 0 mm 0 mps 718 mmHg 85%
    02:00 +1°C° 0 mm 0 mps 718 mmHg 86%
    03:00 +1°C° 0 mm 0 mps 717 mmHg 86%
    04:00 +1°C° 0 mm 0 mps 717 mmHg 87%
    05:00 +1°C° 0 mm 0 mps 717 mmHg 87%
    06:00 +1°C° 0 mm 0 mps 717 mmHg 87%
    07:00 0°C° 0 mm 0 mps 718 mmHg 87%
    08:00 +3°C° 0 mm 0 mps 718 mmHg 78%
    09:00 +6°C° 0 mm 0 mps 718 mmHg 69%
    10:00 +10°C° 0 mm 1 mps 718 mmHg 60%
    11:00 +11°C° 0 mm 1 mps 718 mmHg 56%
    12:00 +12°C° 0 mm 2 mps 717 mmHg 53%
    13:00 +13°C° 0 mm 2 mps 716 mmHg 50%
    14:00 +13°C° 0 mm 2 mps 716 mmHg 54%
    15:00 +12°C° 0 mm 2 mps 716 mmHg 58%
    16:00 +10°C° 0 mm 2 mps 715 mmHg 62%
    17:00 +9°C° 0 mm 1 mps 716 mmHg 70%
    18:00 +7°C° 0 mm 1 mps 716 mmHg 79%
    19:00 +4°C° 0 mm 1 mps 716 mmHg 88%
    20:00 +3°C° 0 mm 0 mps 716 mmHg 89%
    21:00 +3°C° 0 mm 0 mps 716 mmHg 89%
    22:00 +2°C° 0 mm 0 mps 716 mmHg 90%
    23:00 +2°C° 0 mm 0 mps 715 mmHg 90%

    6 June, Saturday

    Time Temperature Precipitation Wind Pressure Humidity
    00:00 +2°C° 0 mm 0 mps 715 mmHg 90%
    01:00 +1°C° 0 mm 0 mps 715 mmHg 91%
    02:00 +1°C° 0 mm 0 mps 714 mmHg 91%
    03:00 +1°C° 0 mm 0 mps 714 mmHg 91%
    04:00 0°C° 0 mm 0 mps 714 mmHg 91%
    05:00 0°C° 0 mm 0 mps 714 mmHg 91%
    06:00 0°C° 0 mm 0 mps 714 mmHg 91%
    07:00 0°C° 0 mm 0 mps 714 mmHg 91%
    08:00 +2°C° 0 mm 0 mps 714 mmHg 82%
    09:00 +6°C° 0 mm 1 mps 714 mmHg 73%
    10:00 +8°C° 0 mm 1 mps 714 mmHg 64%
    11:00 +9°C° 0 mm 2 mps 714 mmHg 58%
    12:00 +10°C° 0 mm 2 mps 713 mmHg 53%
    13:00 +12°C° 0 mm 3 mps 713 mmHg 47%
    14:00 +11°C° 0 mm 3 mps 712 mmHg 51%
    15:00 +11°C° 0 mm 3 mps 712 mmHg 54%
    16:00 +10°C° 0 mm 3 mps 712 mmHg 58%
    17:00 +8°C° 0 mm 2 mps 712 mmHg 68%
    18:00 +5°C° 0 mm 2 mps 712 mmHg 78%
    19:00 +4°C° 0 mm 1 mps 712 mmHg 88%
    20:00 +4°C° 0 mm 1 mps 712 mmHg 89%
    21:00 +4°C° 0 mm 1 mps 713 mmHg 90%
    22:00 +2°C° 0 mm 0 mps 713 mmHg 91%
    23:00 +2°C° 0 mm 0 mps 712 mmHg 91%
    Show more